Location: De Har
(53.3413°N, 6.6858°E)
Time: 18:49:54
(UTC+00:00)

Cosmos 468 Rocket - Pass Details

Date: 22 April 2026
Orbit: 739 x 774 km, 74.0° (Epoch: 9 May)

Event Time Altitude Azimuth Distance (km) Brightness Sun altitude
Exits shadow 02:46:39 12° 196° (SSW) 2,172 5.8 -12.5°
Maximum altitude 02:51:32 74° 113° (ESE) 810 4.2 -11.9°
Drops below altitude 10° 02:56:50 10° 29° (NNE) 2,334 7.7 -11.3°
Sets 02:59:13 0° 28° (NNE) 3,263 8.6 -11.0°
